TimeEST,TemperatureF,Dew PointF,Humidity,Sea Level PressureIn,VisibilityMPH,Wind Direction,Wind SpeedMPH,Gust SpeedMPH,PrecipitationIn,Events,Conditions,WindDirDegrees,DateUTC
12:55 AM,36.9,26.4,66,30.34,10.0,North,5.8,-,N/A,,Overcast,350,2011-12-14 05:55:00
1:55 AM,37.6,28.0,68,30.35,10.0,North,5.8,-,N/A,,Overcast,350,2011-12-14 06:55:00
2:55 AM,34.2,27.7,77,30.35,10.0,NNW,6.9,-,N/A,,Overcast,330,2011-12-14 07:55:00
3:55 AM,36.0,28.4,74,30.35,10.0,NNW,8.1,-,N/A,,Overcast,340,2011-12-14 08:55:00
4:55 AM,36.1,28.8,75,30.36,10.0,North,5.8,-,N/A,,Overcast,360,2011-12-14 09:55:00
5:25 AM,35.6,28.4,75,30.37,10.0,North,8.1,-,N/A,,Overcast,350,2011-12-14 10:25:00
5:55 AM,35.8,28.4,75,30.38,10.0,NNW,6.9,-,N/A,,Overcast,340,2011-12-14 10:55:00
6:55 AM,36.1,28.6,74,30.40,10.0,North,6.9,-,N/A,,Overcast,350,2011-12-14 11:55:00
7:55 AM,36.5,28.0,71,30.41,10.0,North,6.9,-,N/A,,Overcast,10,2011-12-14 12:55:00
8:55 AM,37.2,28.0,69,30.42,10.0,NNE,8.1,-,N/A,,Overcast,20,2011-12-14 13:55:00
9:55 AM,38.3,27.9,66,30.43,10.0,NNE,5.8,-,N/A,,Overcast,30,2011-12-14 14:55:00
10:55 AM,39.0,28.2,65,30.42,10.0,North,5.8,-,N/A,,Overcast,10,2011-12-14 15:55:00
11:55 AM,39.9,28.4,63,30.41,10.0,NNW,3.5,-,N/A,,Overcast,340,2011-12-14 16:55:00
12:55 PM,40.3,27.1,59,30.39,10.0,East,3.5,-,N/A,,Overcast,90,2011-12-14 17:55:00
1:55 PM,39.9,26.8,59,30.40,10.0,Calm,Calm,-,N/A,,Overcast,0,2011-12-14 18:55:00
2:55 PM,39.6,27.3,62,30.38,10.0,SE,4.6,-,N/A,,Overcast,130,2011-12-14 19:55:00
3:55 PM,39.0,27.5,63,30.40,10.0,Calm,Calm,-,N/A,,Overcast,0,2011-12-14 20:55:00
4:55 PM,38.5,28.4,67,30.40,10.0,Calm,Calm,-,N/A,,Overcast,0,2011-12-14 21:55:00
5:55 PM,37.2,28.2,70,30.41,10.0,Calm,Calm,-,N/A,,Overcast,0,2011-12-14 22:55:00
6:55 PM,37.0,27.9,69,30.42,10.0,Calm,Calm,-,N/A,,Overcast,0,2011-12-14 23:55:00
7:55 PM,36.0,28.2,73,30.39,10.0,SE,3.5,-,N/A,,Overcast,140,2011-12-15 00:55:00
8:55 PM,35.1,27.5,74,30.38,10.0,SE,3.5,-,N/A,,Scattered Clouds,130,2011-12-15 01:55:00
9:55 PM,32.5,27.0,80,30.37,10.0,SE,3.5,-,N/A,,Partly Cloudy,130,2011-12-15 02:55:00
10:55 PM,31.1,27.1,85,30.36,10.0,South,3.5,-,N/A,,Mostly Cloudy,180,2011-12-15 03:55:00
11:55 PM,33.3,28.4,82,30.34,10.0,Calm,Calm,-,N/A,,Overcast,0,2011-12-15 04:55:00